Вернуться в каталог

FENGYUN 1C DEB

АктивенSSO
NORAD 35234·DEBRIS·🇨🇳 China

Запущен May 10, 1999 с Taiyuan Satellite Launch Center

Loading…

Ближайшие Пролёты (ближайшие 24 часа)

TLE

СвежийSource: Space-Track

Эпоха: Sep 14, 2026, 08:40 UTC

1 35234U 99025DQS 26257.36161067  .00003177  00000-0  52531-3 0  9991
2 35234  98.0447 285.4686 0098009 110.2533 250.9241 14.67875912983969

Отслеживайте FENGYUN 1C DEB в реальном времени с AllMySat

Download on the App Store